Zurück zum Katalog

STARLINK-32573

AktivKommunikationVLEO
NORAD 61725·PAYLOAD·🇺🇸 United States

Gestartet Oct 30, 2024 von Cape Canaveral Space Force Station

Loading…

Nächste Überflüge (nächste 24 Stunden)

TLE

AktuellSource: CelesTrak SupGP

Epoche: Sep 14, 2026, 21:19 UTC

1 61725C 24196U   26257.88868056  .00016055  00000+0  47458-3 0  2578
2 61725  53.1587 300.1387 0001331  82.9822  56.9545 15.34366979    11

Verfolge STARLINK-32573 in Echtzeit mit AllMySat

Download on the App Store